Time,TemperatureF,DewpointF,PressureIn,WindDirection,WindDirectionDegrees,WindSpeedMPH,WindSpeedGustMPH,Humidity,HourlyPrecipIn,Conditions,Clouds,dailyrainin,SoftwareType,DateUTC
2013-05-14 00:03:00,38.0,33.0,30.28,SW,215,0.0,0.0,82,0.00,,,0.00,,2013-05-14 04:03:00,
2013-05-14 00:13:00,38.0,33.0,30.28,SW,215,0.0,0.0,82,0.00,,,0.00,,2013-05-14 04:13:00,
2013-05-14 00:23:00,39.0,35.0,30.27,SW,215,0.0,0.0,84,0.00,,,0.00,,2013-05-14 04:23:00,
2013-05-14 00:32:00,39.0,35.0,30.27,SW,215,0.0,0.0,84,0.00,,,0.00,,2013-05-14 04:32:00,
2013-05-14 00:43:00,39.0,35.0,30.27,SW,215,0.0,0.0,84,0.00,,,0.00,,2013-05-14 04:43:00,
2013-05-14 00:53:00,40.0,35.0,30.27,SW,215,0.0,0.0,83,0.00,,,0.00,,2013-05-14 04:53:00,
2013-05-14 01:02:00,40.0,35.0,30.27,SW,215,0.0,0.0,83,0.00,,,0.00,,2013-05-14 05:02:00,
2013-05-14 01:12:00,40.0,35.0,30.27,SW,215,0.0,0.0,83,0.00,,,0.00,,2013-05-14 05:12:00,
2013-05-14 01:22:00,40.0,36.0,30.27,SW,215,0.0,0.0,84,0.00,,,0.00,,2013-05-14 05:22:00,
2013-05-14 01:32:00,41.0,36.0,30.27,SW,215,0.0,0.0,83,0.00,,,0.00,,2013-05-14 05:32:00,
2013-05-14 01:42:00,41.0,36.0,30.27,SW,215,0.0,0.0,83,0.00,,,0.00,,2013-05-14 05:42:00,
2013-05-14 01:52:00,41.0,36.0,30.28,SW,215,0.0,0.0,82,0.00,,,0.00,,2013-05-14 05:52:00,
2013-05-14 02:01:00,41.0,36.0,30.28,SW,215,0.0,0.0,81,0.00,,,0.00,,2013-05-14 06:01:00,
2013-05-14 02:12:00,41.0,36.0,30.28,SW,215,0.0,0.0,81,0.00,,,0.00,,2013-05-14 06:12:00,
2013-05-14 02:22:00,41.0,36.0,30.28,SW,215,0.0,0.0,82,0.00,,,0.00,,2013-05-14 06:22:00,
2013-05-14 02:32:00,41.0,36.0,30.28,SW,215,0.0,0.0,83,0.00,,,0.00,,2013-05-14 06:32:00,
2013-05-14 02:42:00,41.0,36.0,30.28,SW,215,0.0,0.0,83,0.00,,,0.00,,2013-05-14 06:42:00,
2013-05-14 02:52:00,41.0,36.0,30.28,SW,215,0.0,0.0,82,0.00,,,0.00,,2013-05-14 06:52:00,
2013-05-14 03:02:00,42.0,37.0,30.27,SW,215,0.0,0.0,82,0.00,,,0.00,,2013-05-14 07:02:00,
2013-05-14 03:11:00,42.0,37.0,30.27,SW,215,0.0,0.0,82,0.00,,,0.00,,2013-05-14 07:11:00,
2013-05-14 03:21:00,41.0,36.0,30.27,ESE,122,0.0,0.0,81,0.00,,,0.00,,2013-05-14 07:21:00,
2013-05-14 03:32:00,40.0,35.0,30.27,SE,126,0.0,0.0,83,0.00,,,0.00,,2013-05-14 07:32:00,
2013-05-14 03:42:00,39.0,34.0,30.27,SE,125,0.0,0.0,83,0.00,,,0.00,,2013-05-14 07:42:00,
2013-05-14 03:52:00,39.0,34.0,30.27,SE,125,0.0,0.0,83,0.00,,,0.00,,2013-05-14 07:52:00,
2013-05-14 04:02:00,38.0,33.0,30.27,SE,125,0.0,0.0,83,0.00,,,0.00,,2013-05-14 08:02:00,
2013-05-14 04:11:00,38.0,33.0,30.27,SE,125,0.0,0.0,83,0.00,,,0.00,,2013-05-14 08:11:00,
2013-05-14 04:21:00,37.0,33.0,30.27,SE,125,0.0,0.0,85,0.00,,,0.00,,2013-05-14 08:21:00,
2013-05-14 04:32:00,37.0,34.0,30.27,SE,125,0.0,0.0,88,0.00,,,0.00,,2013-05-14 08:32:00,
2013-05-14 04:42:00,37.0,34.0,30.27,East,84,0.0,1.0,88,0.00,,,0.00,,2013-05-14 08:42:00,
2013-05-14 04:52:00,37.0,34.0,30.27,East,84,0.0,1.0,88,0.00,,,0.00,,2013-05-14 08:52:00,
2013-05-14 05:02:00,37.0,34.0,30.28,East,84,0.0,0.0,89,0.00,,,0.00,,2013-05-14 09:02:00,
2013-05-14 05:11:00,37.0,34.0,30.28,East,84,0.0,0.0,89,0.00,,,0.00,,2013-05-14 09:11:00,
2013-05-14 05:22:00,36.0,33.0,30.28,East,84,0.0,0.0,90,0.00,,,0.00,,2013-05-14 09:22:00,
2013-05-14 05:32:00,36.0,33.0,30.29,East,86,0.0,0.0,90,0.00,,,0.00,,2013-05-14 09:32:00,
2013-05-14 05:44:00,36.0,34.0,30.29,SW,215,0.0,0.0,91,0.00,,,0.00,,2013-05-14 09:44:00,
2013-05-14 05:54:00,36.0,34.0,30.29,SW,215,0.0,0.0,91,0.00,,,0.00,,2013-05-14 09:54:00,
2013-05-14 06:05:00,37.0,35.0,30.29,East,86,0.0,1.0,91,0.00,,,0.00,,2013-05-14 10:05:00,
2013-05-14 06:14:00,37.0,35.0,30.29,East,86,0.0,1.0,91,0.00,,,0.00,,2013-05-14 10:14:00,
2013-05-14 06:25:00,39.0,36.0,30.30,East,90,0.0,0.0,88,0.00,,,0.00,,2013-05-14 10:25:00,
2013-05-14 06:33:00,40.0,36.0,30.30,ENE,60,0.0,1.0,86,0.00,,,0.00,,2013-05-14 10:33:00,
2013-05-14 06:42:00,40.0,36.0,30.30,ENE,60,0.0,1.0,86,0.00,,,0.00,,2013-05-14 10:42:00,
2013-05-14 06:53:00,41.0,36.0,30.30,ENE,77,0.0,1.0,83,0.00,,,0.00,,2013-05-14 10:53:00,
2013-05-14 07:02:00,41.0,36.0,30.30,WNW,299,0.0,2.0,82,0.00,,,0.00,,2013-05-14 11:02:00,
2013-05-14 07:11:00,41.0,36.0,30.30,WNW,299,0.0,2.0,82,0.00,,,0.00,,2013-05-14 11:11:00,
2013-05-14 07:22:00,42.0,36.0,30.31,SSW,202,0.0,2.0,79,0.00,,,0.00,,2013-05-14 11:22:00,
2013-05-14 07:32:00,43.0,37.0,30.32,SSW,201,0.0,1.0,79,0.00,,,0.00,,2013-05-14 11:32:00,
2013-05-14 07:43:00,43.0,37.0,30.32,SSW,201,0.0,1.0,79,0.00,,,0.00,,2013-05-14 11:43:00,
2013-05-14 07:53:00,44.0,37.0,30.32,SW,235,0.0,3.0,77,0.00,,,0.00,,2013-05-14 11:53:00,
2013-05-14 08:03:00,45.0,37.0,30.32,WSW,253,0.0,2.0,73,0.00,,,0.00,,2013-05-14 12:03:00,
2013-05-14 08:12:00,45.0,37.0,30.32,WSW,253,0.0,2.0,73,0.00,,,0.00,,2013-05-14 12:12:00,
2013-05-14 08:21:00,46.0,37.0,30.32,ENE,63,0.0,2.0,72,0.00,,,0.00,,2013-05-14 12:21:00,
2013-05-14 08:32:00,47.0,37.0,30.32,West,281,1.0,2.0,68,0.00,,,0.00,,2013-05-14 12:32:00,
2013-05-14 08:42:00,47.0,37.0,30.32,West,281,1.0,2.0,68,0.00,,,0.00,,2013-05-14 12:42:00,
2013-05-14 08:52:00,49.0,38.0,30.32,East,97,0.0,5.0,65,0.00,,,0.00,,2013-05-14 12:52:00,
2013-05-14 09:01:00,49.0,37.0,30.31,West,278,1.0,3.0,64,0.00,,,0.00,,2013-05-14 13:01:00,
2013-05-14 09:11:00,49.0,37.0,30.31,West,278,1.0,3.0,64,0.00,,,0.00,,2013-05-14 13:11:00,
2013-05-14 09:22:00,51.0,38.0,30.31,West,280,1.0,3.0,61,0.00,,,0.00,,2013-05-14 13:22:00,
2013-05-14 09:32:00,52.0,39.0,30.30,WNW,285,1.0,3.0,62,0.00,,,0.00,,2013-05-14 13:32:00,
2013-05-14 09:42:00,52.0,39.0,30.30,WNW,285,1.0,3.0,62,0.00,,,0.00,,2013-05-14 13:42:00,
2013-05-14 09:52:00,52.0,39.0,30.30,WNW,285,1.0,3.0,62,0.00,,,0.00,,2013-05-14 13:52:00,
2013-05-14 10:01:00,54.0,35.0,30.29,NW,305,1.0,6.0,49,0.00,,,0.00,,2013-05-14 14:01:00,
2013-05-14 10:11:00,55.0,36.0,30.29,West,260,1.0,5.0,48,0.00,,,0.00,,2013-05-14 14:11:00,
2013-05-14 10:22:00,55.0,36.0,30.29,West,260,1.0,5.0,48,0.00,,,0.00,,2013-05-14 14:22:00,
2013-05-14 10:32:00,54.0,36.0,30.29,WSW,250,2.0,5.0,51,0.00,,,0.00,,2013-05-14 14:32:00,
2013-05-14 10:42:00,54.0,36.0,30.29,WSW,250,2.0,5.0,51,0.00,,,0.00,,2013-05-14 14:42:00,
2013-05-14 10:53:00,55.0,36.0,30.29,North,6,2.0,5.0,49,0.00,,,0.00,,2013-05-14 14:53:00,
2013-05-14 11:01:00,56.0,36.0,30.29,West,262,1.0,8.0,47,0.00,,,0.00,,2013-05-14 15:01:00,
2013-05-14 11:12:00,56.0,36.0,30.29,West,262,1.0,8.0,47,0.00,,,0.00,,2013-05-14 15:12:00,
2013-05-14 11:22:00,55.0,36.0,30.29,NE,49,2.0,5.0,48,0.00,,,0.00,,2013-05-14 15:22:00,
2013-05-14 11:33:00,55.0,37.0,30.29,ENE,76,1.0,3.0,51,0.00,,,0.00,,2013-05-14 15:33:00,
2013-05-14 11:43:00,54.0,34.0,30.29,West,269,1.0,3.0,47,0.00,,,0.00,,2013-05-14 15:43:00,
2013-05-14 11:53:00,54.0,34.0,30.29,West,269,1.0,3.0,47,0.00,,,0.00,,2013-05-14 15:53:00,
2013-05-14 12:02:00,55.0,34.0,30.29,WSW,257,2.0,5.0,45,0.00,,,0.00,,2013-05-14 16:02:00,
2013-05-14 12:12:00,55.0,34.0,30.29,WSW,257,2.0,5.0,45,0.00,,,0.00,,2013-05-14 16:12:00,
2013-05-14 12:23:00,55.0,34.0,30.28,NNE,29,2.0,5.0,45,0.00,,,0.00,,2013-05-14 16:23:00,
2013-05-14 12:33:00,56.0,34.0,30.28,ENE,69,1.0,7.0,44,0.00,,,0.00,,2013-05-14 16:33:00,
2013-05-14 12:44:00,56.0,34.0,30.28,ENE,69,1.0,7.0,44,0.00,,,0.00,,2013-05-14 16:44:00,
2013-05-14 12:54:00,57.0,34.0,30.27,WSW,248,1.0,6.0,42,0.00,,,0.00,,2013-05-14 16:54:00,
2013-05-14 13:03:00,59.0,35.0,30.27,WSW,250,1.0,3.0,40,0.00,,,0.00,,2013-05-14 17:03:00,
2013-05-14 13:13:00,59.0,35.0,30.27,WSW,250,1.0,3.0,40,0.00,,,0.00,,2013-05-14 17:13:00,
2013-05-14 13:24:00,59.0,36.0,30.26,NE,56,2.0,9.0,42,0.00,,,0.00,,2013-05-14 17:24:00,
2013-05-14 13:33:00,60.0,34.0,30.26,SW,218,1.0,6.0,37,0.00,,,0.00,,2013-05-14 17:33:00,
2013-05-14 13:43:00,60.0,34.0,30.26,SW,218,1.0,6.0,37,0.00,,,0.00,,2013-05-14 17:43:00,
2013-05-14 13:52:00,59.0,34.0,30.26,WSW,253,2.0,6.0,39,0.00,,,0.00,,2013-05-14 17:52:00,
2013-05-14 14:02:00,59.0,33.0,30.26,WSW,248,1.0,5.0,38,0.00,,,0.00,,2013-05-14 18:02:00,
2013-05-14 14:12:00,59.0,33.0,30.26,WSW,248,1.0,5.0,38,0.00,,,0.00,,2013-05-14 18:12:00,
2013-05-14 14:22:00,59.0,33.0,30.26,North,11,1.0,3.0,37,0.00,,,0.00,,2013-05-14 18:22:00,
2013-05-14 14:32:00,59.0,32.0,30.25,WSW,243,2.0,3.0,36,0.00,,,0.00,,2013-05-14 18:32:00,
2013-05-14 14:42:00,59.0,32.0,30.25,WSW,243,2.0,3.0,36,0.00,,,0.00,,2013-05-14 18:42:00,
2013-05-14 14:52:00,58.0,34.0,30.25,SW,235,2.0,6.0,40,0.00,,,0.00,,2013-05-14 18:52:00,
2013-05-14 15:01:00,59.0,36.0,30.25,West,274,1.0,5.0,42,0.00,,,0.00,,2013-05-14 19:01:00,
2013-05-14 15:12:00,59.0,36.0,30.25,West,274,1.0,5.0,42,0.00,,,0.00,,2013-05-14 19:12:00,
2013-05-14 15:22:00,60.0,32.0,30.24,ENE,58,1.0,5.0,34,0.00,,,0.00,,2013-05-14 19:22:00,
2013-05-14 15:32:00,59.0,32.0,30.24,West,278,1.0,5.0,36,0.00,,,0.00,,2013-05-14 19:32:00,
2013-05-14 15:42:00,59.0,32.0,30.24,West,278,1.0,5.0,36,0.00,,,0.00,,2013-05-14 19:42:00,
2013-05-14 15:53:00,58.0,32.0,30.24,ENE,77,2.0,5.0,37,0.00,,,0.00,,2013-05-14 19:53:00,
2013-05-14 16:02:00,58.0,36.0,30.23,WNW,295,1.0,9.0,43,0.00,,,0.00,,2013-05-14 20:02:00,
2013-05-14 16:23:00,59.0,34.0,30.23,WSW,250,1.0,3.0,39,0.00,,,0.00,,2013-05-14 20:23:00,
2013-05-14 16:33:00,59.0,33.0,30.23,West,275,1.0,5.0,38,0.00,,,0.00,,2013-05-14 20:33:00,
2013-05-14 16:44:00,59.0,33.0,30.23,West,275,1.0,5.0,38,0.00,,,0.00,,2013-05-14 20:44:00,
2013-05-14 16:52:00,59.0,33.0,30.23,West,262,1.0,6.0,37,0.00,,,0.00,,2013-05-14 20:52:00,
2013-05-14 17:03:00,59.0,33.0,30.23,WNW,283,0.0,3.0,37,0.00,,,0.00,,2013-05-14 21:03:00,
2013-05-14 17:12:00,59.0,33.0,30.23,WNW,283,0.0,3.0,37,0.00,,,0.00,,2013-05-14 21:12:00,
2013-05-14 17:23:00,59.0,32.0,30.23,SW,218,2.0,6.0,36,0.00,,,0.00,,2013-05-14 21:23:00,
2013-05-14 17:33:00,58.0,31.0,30.23,West,259,1.0,3.0,35,0.00,,,0.00,,2013-05-14 21:33:00,
2013-05-14 17:43:00,58.0,31.0,30.23,West,259,1.0,3.0,35,0.00,,,0.00,,2013-05-14 21:43:00,
2013-05-14 17:53:00,57.0,32.0,30.23,WSW,253,1.0,3.0,39,0.00,,,0.00,,2013-05-14 21:53:00,
2013-05-14 18:03:00,59.0,35.0,30.22,WSW,246,0.0,3.0,40,0.00,,,0.00,,2013-05-14 22:03:00,
2013-05-14 18:13:00,59.0,35.0,30.22,WSW,246,0.0,3.0,40,0.00,,,0.00,,2013-05-14 22:13:00,
2013-05-14 18:24:00,57.0,34.0,30.22,West,266,0.0,6.0,41,0.00,,,0.00,,2013-05-14 22:24:00,
2013-05-14 18:34:00,57.0,32.0,30.22,WSW,253,0.0,2.0,39,0.00,,,0.00,,2013-05-14 22:34:00,
2013-05-14 18:45:00,57.0,32.0,30.22,WSW,253,0.0,2.0,39,0.00,,,0.00,,2013-05-14 22:45:00,
2013-05-14 18:55:00,56.0,30.0,30.22,West,275,2.0,5.0,37,0.00,,,0.00,,2013-05-14 22:55:00,
2013-05-14 19:03:00,56.0,33.0,30.22,West,271,0.0,3.0,41,0.00,,,0.00,,2013-05-14 23:03:00,
2013-05-14 19:12:00,56.0,33.0,30.22,West,271,0.0,3.0,41,0.00,,,0.00,,2013-05-14 23:12:00,
2013-05-14 19:22:00,54.0,32.0,30.23,WSW,243,0.0,1.0,43,0.00,,,0.00,,2013-05-14 23:22:00,
2013-05-14 19:32:00,53.0,32.0,30.23,WSW,243,0.0,1.0,45,0.00,,,0.00,,2013-05-14 23:32:00,
2013-05-14 19:44:00,53.0,32.0,30.23,WSW,243,0.0,1.0,45,0.00,,,0.00,,2013-05-14 23:44:00,
2013-05-14 19:53:00,52.0,34.0,30.24,WSW,239,0.0,1.0,51,0.00,,,0.00,,2013-05-14 23:53:00,
2013-05-14 20:02:00,52.0,33.0,30.24,WNW,299,0.0,1.0,49,0.00,,,0.00,,2013-05-15 00:02:00,
2013-05-14 20:21:00,50.0,34.0,30.24,East,96,0.0,1.0,54,0.00,,,0.00,,2013-05-15 00:21:00,
2013-05-14 20:32:00,49.0,32.0,30.25,East,96,0.0,0.0,51,0.00,,,0.00,,2013-05-15 00:32:00,
2013-05-14 20:42:00,49.0,32.0,30.25,East,96,0.0,0.0,51,0.00,,,0.00,,2013-05-15 00:42:00,
2013-05-14 20:52:00,48.0,33.0,30.26,ESE,104,0.0,0.0,55,0.00,,,0.00,,2013-05-15 00:52:00,
2013-05-14 21:01:00,47.0,32.0,30.26,ESE,104,0.0,0.0,56,0.00,,,0.00,,2013-05-15 01:01:00,
2013-05-14 21:11:00,47.0,32.0,30.26,ESE,104,0.0,0.0,56,0.00,,,0.00,,2013-05-15 01:11:00,
2013-05-14 21:22:00,46.0,32.0,30.27,ESE,103,0.0,0.0,59,0.00,,,0.00,,2013-05-15 01:22:00,
2013-05-14 21:32:00,46.0,33.0,30.27,ESE,103,0.0,0.0,61,0.00,,,0.00,,2013-05-15 01:32:00,
2013-05-14 21:42:00,46.0,33.0,30.27,ESE,103,0.0,0.0,61,0.00,,,0.00,,2013-05-15 01:42:00,
2013-05-14 21:52:00,45.0,33.0,30.28,ESE,103,0.0,0.0,62,0.00,,,0.00,,2013-05-15 01:52:00,
2013-05-14 22:02:00,45.0,33.0,30.28,ESE,103,0.0,0.0,62,0.00,,,0.00,,2013-05-15 02:02:00,
2013-05-14 22:11:00,45.0,33.0,30.28,ESE,103,0.0,0.0,62,0.00,,,0.00,,2013-05-15 02:11:00,
2013-05-14 22:22:00,44.0,33.0,30.28,ESE,103,0.0,0.0,65,0.00,,,0.00,,2013-05-15 02:22:00,
2013-05-14 22:32:00,44.0,33.0,30.29,ESE,103,0.0,0.0,66,0.00,,,0.00,,2013-05-15 02:32:00,
2013-05-14 22:42:00,44.0,33.0,30.29,ESE,103,0.0,0.0,66,0.00,,,0.00,,2013-05-15 02:42:00,
2013-05-14 22:52:00,43.0,33.0,30.29,ESE,103,0.0,0.0,67,0.00,,,0.00,,2013-05-15 02:52:00,
2013-05-14 23:01:00,43.0,33.0,30.29,ESE,103,0.0,0.0,68,0.00,,,0.00,,2013-05-15 03:01:00,
2013-05-14 23:13:00,43.0,33.0,30.29,ESE,103,0.0,0.0,68,0.00,,,0.00,,2013-05-15 03:13:00,
2013-05-14 23:22:00,42.0,33.0,30.29,ESE,103,0.0,0.0,70,0.00,,,0.00,,2013-05-15 03:22:00,
2013-05-14 23:33:00,42.0,33.0,30.29,ESE,103,0.0,0.0,70,0.00,,,0.00,,2013-05-15 03:33:00,
2013-05-14 23:44:00,41.0,34.0,30.29,ESE,103,0.0,0.0,75,0.00,,,0.00,,2013-05-15 03:44:00,
2013-05-14 23:54:00,41.0,34.0,30.29,ESE,103,0.0,0.0,75,0.00,,,0.00,,2013-05-15 03:54:00,